Time,TemperatureF,DewpointF,PressureIn,WindDirection,WindDirectionDegrees,WindSpeedMPH,WindSpeedGustMPH,Humidity,HourlyPrecipIn,Conditions,Clouds,dailyrainin,SolarRadiationWatts/m^2,SoftwareType,DateUTC
2013-08-21 02:53:00,60.0,36.0,-100.00,NNE,28,1.0,3.0,40,-99.99,,,0.00,0.000000,,2013-08-21 09:53:00,
2013-08-21 03:03:00,60.0,36.0,-100.00,NNE,28,1.0,3.0,40,-99.99,,,0.00,0.000000,,2013-08-21 10:03:00,
2013-08-21 04:52:00,57.0,34.0,-100.00,SSW,194,1.0,4.0,42,0.00,,,0.00,0.000000,,2013-08-21 11:52:00,
2013-08-21 05:01:00,57.0,34.0,-100.00,SSW,194,1.0,4.0,42,0.00,,,0.00,0.000000,,2013-08-21 12:01:00,
2013-08-21 05:52:00,57.0,34.0,-100.00,SSW,195,3.0,4.0,41,-99.99,,,0.00,0.000000,,2013-08-21 12:52:00,
2013-08-21 06:02:00,57.0,34.0,-100.00,SSW,195,3.0,4.0,41,-99.99,,,0.00,0.000000,,2013-08-21 13:02:00,
2013-08-21 06:31:00,56.0,35.0,-100.00,North,350,1.0,4.0,45,0.00,,,0.00,2.000000,,2013-08-21 13:31:00,
2013-08-21 06:52:00,56.0,35.0,-100.00,North,350,1.0,4.0,45,0.00,,,0.00,2.000000,,2013-08-21 13:52:00,
2013-08-21 07:02:00,56.0,35.0,-100.00,North,350,1.0,4.0,45,0.00,,,0.00,2.000000,,2013-08-21 14:02:00,
2013-08-21 07:21:00,56.0,35.0,-100.00,North,350,1.0,4.0,45,0.00,,,0.00,2.000000,,2013-08-21 14:21:00,
2013-08-21 08:31:00,63.0,40.0,-100.00,North,11,1.0,3.0,43,-99.99,,,0.00,127.000000,,2013-08-21 15:31:00,
2013-08-21 08:54:00,63.0,40.0,-100.00,North,11,1.0,3.0,43,-99.99,,,0.00,127.000000,,2013-08-21 15:54:00,
2013-08-21 09:04:00,63.0,40.0,-100.00,North,11,1.0,3.0,43,-99.99,,,0.00,127.000000,,2013-08-21 16:04:00,
2013-08-21 09:24:00,63.0,40.0,-100.00,North,11,1.0,3.0,43,-99.99,,,0.00,127.000000,,2013-08-21 16:24:00,
2013-08-21 09:31:00,66.0,45.0,-100.00,North,7,2.0,3.0,46,0.00,,,0.00,214.000000,,2013-08-21 16:31:00,
2013-08-21 09:53:00,66.0,45.0,-100.00,North,7,2.0,3.0,46,0.00,,,0.00,214.000000,,2013-08-21 16:53:00,
2013-08-21 10:03:00,66.0,45.0,-100.00,North,7,2.0,3.0,46,0.00,,,0.00,214.000000,,2013-08-21 17:03:00,
2013-08-21 10:13:00,66.0,45.0,-100.00,North,7,2.0,3.0,46,0.00,,,0.00,214.000000,,2013-08-21 17:13:00,
2013-08-21 10:23:00,66.0,45.0,-100.00,North,7,2.0,3.0,46,0.00,,,0.00,214.000000,,2013-08-21 17:23:00,
2013-08-21 10:31:00,72.0,43.0,-100.00,NNE,20,3.0,7.0,35,0.00,,,0.00,395.000000,,2013-08-21 17:31:00,
2013-08-21 10:53:00,72.0,43.0,-100.00,NNE,20,3.0,7.0,35,0.00,,,0.00,395.000000,,2013-08-21 17:53:00,
2013-08-21 11:02:00,72.0,43.0,-100.00,NNE,20,3.0,7.0,35,0.00,,,0.00,395.000000,,2013-08-21 18:02:00,
2013-08-21 11:12:00,72.0,43.0,-100.00,NNE,20,3.0,7.0,35,0.00,,,0.00,395.000000,,2013-08-21 18:12:00,
2013-08-21 11:22:00,72.0,43.0,-100.00,NNE,20,3.0,7.0,35,0.00,,,0.00,395.000000,,2013-08-21 18:22:00,
2013-08-21 11:31:00,78.0,41.0,-100.00,NNE,15,5.0,9.0,27,0.00,,,0.00,545.000000,,2013-08-21 18:31:00,
2013-08-21 12:22:00,78.0,41.0,-100.00,NNE,15,5.0,9.0,27,0.00,,,0.00,545.000000,,2013-08-21 19:22:00,
2013-08-21 12:31:00,75.0,38.0,-100.00,North,6,2.0,9.0,26,0.00,,,0.00,277.000000,,2013-08-21 19:31:00,
2013-08-21 12:52:00,75.0,38.0,-100.00,North,6,2.0,9.0,26,0.00,,,0.00,277.000000,,2013-08-21 19:52:00,
2013-08-21 13:03:00,75.0,38.0,-100.00,North,6,2.0,9.0,26,0.00,,,0.00,277.000000,,2013-08-21 20:03:00,
2013-08-21 13:11:00,75.0,38.0,-100.00,North,6,2.0,9.0,26,0.00,,,0.00,277.000000,,2013-08-21 20:11:00,
2013-08-21 13:22:00,75.0,38.0,-100.00,North,6,2.0,9.0,26,0.00,,,0.00,277.000000,,2013-08-21 20:22:00,
2013-08-21 13:31:00,80.0,37.0,-100.00,North,7,4.0,9.0,21,0.00,,,0.00,549.000000,,2013-08-21 20:31:00,
2013-08-21 14:12:00,80.0,37.0,-100.00,North,7,4.0,9.0,21,0.00,,,0.00,549.000000,,2013-08-21 21:12:00,
2013-08-21 14:21:00,80.0,37.0,-100.00,North,7,4.0,9.0,21,0.00,,,0.00,549.000000,,2013-08-21 21:21:00,
2013-08-21 14:31:00,82.0,33.0,-100.00,NE,35,3.0,11.0,17,0.00,,,0.00,634.000000,,2013-08-21 21:31:00,
2013-08-21 15:24:00,82.0,33.0,-100.00,NE,35,3.0,11.0,17,0.00,,,0.00,634.000000,,2013-08-21 22:24:00,
2013-08-21 15:31:00,80.0,30.0,-100.00,NNE,33,2.0,7.0,16,0.00,,,0.00,294.000000,,2013-08-21 22:31:00,
2013-08-21 16:12:00,80.0,30.0,-100.00,NNE,33,2.0,7.0,16,0.00,,,0.00,294.000000,,2013-08-21 23:12:00,
2013-08-21 16:22:00,80.0,30.0,-100.00,NNE,33,2.0,7.0,16,0.00,,,0.00,294.000000,,2013-08-21 23:22:00,
2013-08-21 16:31:00,84.0,34.0,-100.00,NNE,14,4.0,10.0,17,0.00,,,0.00,439.000000,,2013-08-21 23:31:00,
2013-08-21 16:53:00,84.0,34.0,-100.00,NNE,14,4.0,10.0,17,0.00,,,0.00,439.000000,,2013-08-21 23:53:00,
2013-08-21 17:02:00,84.0,34.0,-100.00,NNE,14,4.0,10.0,17,0.00,,,0.00,439.000000,,2013-08-22 00:02:00,
2013-08-21 17:12:00,84.0,34.0,-100.00,NNE,14,4.0,10.0,17,0.00,,,0.00,439.000000,,2013-08-22 00:12:00,
2013-08-21 17:21:00,84.0,34.0,-100.00,NNE,14,4.0,10.0,17,0.00,,,0.00,439.000000,,2013-08-22 00:21:00,
2013-08-21 17:52:00,78.0,32.0,-100.00,North,4,3.0,6.0,19,0.00,,,0.00,222.000000,,2013-08-22 00:52:00,
2013-08-21 18:02:00,78.0,32.0,-100.00,North,4,3.0,6.0,19,0.00,,,0.00,222.000000,,2013-08-22 01:02:00,
2013-08-21 18:11:00,78.0,32.0,-100.00,North,4,3.0,6.0,19,0.00,,,0.00,222.000000,,2013-08-22 01:11:00,
2013-08-21 18:31:00,78.0,35.0,-100.00,North,3,3.0,6.0,21,0.00,,,0.00,141.000000,,2013-08-22 01:31:00,
2013-08-21 18:52:00,78.0,35.0,-100.00,North,3,3.0,6.0,21,0.00,,,0.00,141.000000,,2013-08-22 01:52:00,
2013-08-21 19:03:00,78.0,35.0,-100.00,North,3,3.0,6.0,21,0.00,,,0.00,141.000000,,2013-08-22 02:03:00,
2013-08-21 19:12:00,78.0,35.0,-100.00,North,3,3.0,6.0,21,0.00,,,0.00,141.000000,,2013-08-22 02:12:00,
2013-08-21 19:22:00,78.0,35.0,-100.00,North,3,3.0,6.0,21,0.00,,,0.00,141.000000,,2013-08-22 02:22:00,
2013-08-21 19:31:00,73.0,33.0,-100.00,NNW,338,3.0,7.0,23,0.00,,,0.00,68.000000,,2013-08-22 02:31:00,
2013-08-21 20:12:00,73.0,33.0,-100.00,NNW,338,3.0,7.0,23,0.00,,,0.00,68.000000,,2013-08-22 03:12:00,
2013-08-21 20:22:00,73.0,33.0,-100.00,NNW,338,3.0,7.0,23,0.00,,,0.00,68.000000,,2013-08-22 03:22:00,
2013-08-21 20:31:00,68.0,35.0,-100.00,NW,326,2.0,5.0,30,0.00,,,0.00,7.000000,,2013-08-22 03:31:00,
2013-08-21 20:54:00,68.0,35.0,-100.00,NW,326,2.0,5.0,30,0.00,,,0.00,7.000000,,2013-08-22 03:54:00,
2013-08-21 21:04:00,68.0,35.0,-100.00,NW,326,2.0,5.0,30,0.00,,,0.00,7.000000,,2013-08-22 04:04:00,
2013-08-21 21:14:00,68.0,35.0,-100.00,NW,326,2.0,5.0,30,0.00,,,0.00,7.000000,,2013-08-22 04:14:00,
2013-08-21 21:23:00,68.0,35.0,-100.00,NW,326,2.0,5.0,30,0.00,,,0.00,7.000000,,2013-08-22 04:23:00,
2013-08-21 21:31:00,66.0,34.0,-100.00,NNW,341,3.0,5.0,31,0.00,,,0.00,0.000000,,2013-08-22 04:31:00,
2013-08-21 21:54:00,66.0,34.0,-100.00,NNW,341,3.0,5.0,31,0.00,,,0.00,0.000000,,2013-08-22 04:54:00,
2013-08-21 22:03:00,66.0,34.0,-100.00,NNW,341,3.0,5.0,31,0.00,,,0.00,0.000000,,2013-08-22 05:03:00,
2013-08-21 22:12:00,66.0,34.0,-100.00,NNW,341,3.0,5.0,31,0.00,,,0.00,0.000000,,2013-08-22 05:12:00,
2013-08-21 22:22:00,66.0,34.0,-100.00,NNW,341,3.0,5.0,31,0.00,,,0.00,0.000000,,2013-08-22 05:22:00,
2013-08-21 22:31:00,64.0,34.0,-100.00,WSW,258,1.0,3.0,32,0.00,,,0.00,0.000000,,2013-08-22 05:31:00,
2013-08-21 22:52:00,64.0,34.0,-100.00,WSW,258,1.0,3.0,32,0.00,,,0.00,0.000000,,2013-08-22 05:52:00,
2013-08-21 23:02:00,64.0,34.0,-100.00,WSW,258,1.0,3.0,32,0.00,,,0.00,0.000000,,2013-08-22 06:02:00,
2013-08-21 23:12:00,64.0,34.0,-100.00,WSW,258,1.0,3.0,32,0.00,,,0.00,0.000000,,2013-08-22 06:12:00,
2013-08-21 23:22:00,64.0,34.0,-100.00,WSW,258,1.0,3.0,32,0.00,,,0.00,0.000000,,2013-08-22 06:22:00,
2013-08-21 23:31:00,63.0,33.0,-100.00,NW,325,1.0,3.0,33,0.00,,,0.00,0.000000,,2013-08-22 06:31:00,
2013-08-21 23:52:00,63.0,33.0,-100.00,NW,325,1.0,3.0,33,0.00,,,0.00,0.000000,,2013-08-22 06:52:00,